[[{"header":{"parameterUnit":"m.s-1","parameterCategory":1,"la1":30.2991,"la2":30.254,"lo1":-89.0895,"lo2":-89.0444,"dx":0.0017,"dy":0.0017,"nx":28,"ny":28,"refTime":"2023-01-27T09:00:00:Z","depth":0,"parameterNumber":2,"parameterNumberName":"U-component_of_WINDS"},"data":[0,0,0,0,0,0,0,0,0,0,0,0,0,0,0,0,0,0,0,0,0,0,0,0,0,0,0,0,0,0,0,0,0,0,0,0,0,0,0,0,0,0,0,0,0,0,0,0,0,0,0,0,0,0,0,0,0,0,1.7435,1.7435,0,1.7446,1.7446,1.7446,1.7389,1.7388,1.7386,1.7385,1.7396,1.7398,1.74,0,0,0,0,0,0,0,0,0,0,0,0,0,1.7364,1.7366,1.7435,1.7435,1.7435,1.7446,1.7446,1.7446,1.739,1.7388,1.7386,1.7384,1.7395,1.7398,1.74,0,0,0,0,0,0,0,0,0,0,0,0,0,1.7387,1.7366,1.7435,1.7408,1.7406,1.7446,1.7446,1.7446,1.739,1.7388,1.7385,1.7383,1.7395,1.7397,1.74,1.7466,0,0,1.7408,1.741,0,0,0,0,0,0,0,0,1.7386,1.739,1.7412,1.741,1.7407,1.7414,1.7425,1.7453,1.7391,1.7396,1.7384,1.7382,1.7404,1.7406,1.7413,1.7467,1.7467,1.7409,1.741,1.7412,1.7412,0,0,0,0,0,0,0,1.7384,1.7389,1.7439,1.7412,1.741,1.7396,1.7396,1.743,1.7414,1.7395,1.7391,1.7393,1.7402,1.7411,1.7413,1.7468,1.7409,1.7411,1.7413,1.7414,1.7577,1.758,0,0,0,0,0,0,1.7386,1.7388,1.7439,1.7439,1.739,1.7399,1.7399,1.7414,1.7413,1.7411,1.7395,1.7391,1.7407,1.741,1.7413,1.7492,1.7412,1.7414,1.7416,1.7575,1.7578,1.7581,0,0,0,0,0,0,1.7385,1.7391,1.7438,1.7413,1.7418,1.7403,1.742,1.7416,1.7424,1.7413,1.741,1.7407,1.7405,1.7409,1.7454,1.7491,1.7415,1.7418,1.7572,1.7576,1.758,1.7649,0,0,0,0,0,0,1.7383,1.7391,1.7416,1.7414,1.7419,1.7479,1.7422,1.7418,1.7429,1.7423,1.7423,1.7421,1.7404,1.745,1.7457,1.7494,1.742,1.7568,1.7573,1.7578,1.7643,1.7655,1.7665,0,0,0,0,0,1.7381,1.7435,1.7418,1.7424,1.745,1.7481,1.7484,1.7463,1.7432,1.7458,1.7451,1.7421,1.7486,1.7455,1.7462,1.7501,1.7566,1.7572,1.7578,1.7639,1.7653,1.7665,0,0,0,0,0,0,1.7442,1.7434,1.7415,1.747,1.7477,1.7471,1.7502,1.7479,1.7494,1.7488,1.7461,1.7462,1.7511,1.751,1.7476,1.7565,1.7521,1.7528,1.7564,1.7578,1.7588,1.7588,1.7422,0,0,0,0,0,1.7462,1.7488,1.748,1.7529,1.7533,1.7518,1.753,1.7514,1.7519,1.7522,1.7518,1.7525,1.7547,1.7562,1.7582,1.7643,1.7643,1.7673,1.7683,1.7692,1.77,1.7733,1.7747,1.7601,1.7601,1.7601,0,0,1.7503,1.7502,1.752,1.7541,1.7544,1.7572,1.752,1.7551,1.7572,1.7527,1.7569,1.7566,1.7572,1.7626,1.7649,1.7626,1.774,1.77,1.7707,1.771,1.7741,1.7755,1.7767,1.7605,1.7604,1.7604,0,0,1.7593,1.7595,1.7636,1.7641,1.7647,1.7636,1.7646,1.7645,1.7642,1.7683,1.765,1.7674,1.7712,1.7718,1.7727,1.782,1.7794,1.7827,1.7883,1.7916,1.7928,1.7938,1.7972,1.7985,1.7834,1.7834,1.7834,0,1.7644,1.7684,1.7661,1.7695,1.7705,1.7666,1.7708,1.7714,1.7726,1.7734,1.7708,1.7756,1.7757,1.7812,1.7835,1.7843,1.7854,1.7827,1.7928,1.7938,1.7947,1.7979,1.7992,1.7838,1.7838,1.7837,1.7837,0,1.7747,1.7776,1.7809,1.7822,1.7836,1.7874,1.7857,1.7874,1.7856,1.7848,1.7892,1.7892,1.7911,1.7923,1.7905,1.7976,1.7962,1.7932,1.7887,1.7965,1.7995,1.8008,1.7844,1.7842,1.7841,1.784,0,0,1.7876,1.7876,1.7889,1.7895,1.7898,1.792,1.7957,1.7976,1.7992,1.8001,1.8032,1.8065,1.8039,1.8048,1.8031,1.806,1.8135,1.8027,1.8027,1.8048,1.8214,1.8237,1.8251,1.8117,1.812,1.8121,1.8214,0,1.7965,1.8027,1.8007,1.8071,1.8098,1.8061,1.8092,1.8099,1.8092,1.8114,1.8107,1.8132,1.8094,1.81,1.8126,1.812,1.8168,1.8113,1.8146,1.8148,1.8147,1.8267,1.8291,1.8378,1.8225,1.8227,1.8228,0,1.8077,1.8092,1.8158,1.8158,1.8169,1.8198,1.8214,1.8235,1.8242,1.8235,1.8246,1.8223,1.826,1.8214,1.8264,1.8227,1.8239,1.8238,1.8241,1.8244,1.8194,1.8274,1.8405,1.8418,1.8247,1.8245,1.8244,0,1.8166,1.8202,1.8247,1.8253,1.8254,1.8275,1.8277,1.8281,1.8294,1.8308,1.8317,1.8335,1.8346,1.836,1.8344,1.8312,1.8397,1.8349,1.8393,1.8394,1.8413,1.8413,1.8549,1.842,1.8419,1.8419,1.8419,0,1.8268,1.831,1.8287,1.8314,1.8361,1.8338,1.8384,1.8382,1.8386,1.8412,1.8381,1.8407,1.8382,1.8406,1.8393,1.8437,1.8442,1.8438,1.8434,1.8442,1.8442,1.845,1.8444,1.8423,1.8422,1.8421,1.8421,0,1.8375,1.8361,1.8408,1.8405,1.8405,1.844,1.8438,1.8464,1.8455,1.8489,1.8496,1.8483,1.8509,1.8494,1.8521,1.8512,1.857,1.8557,1.8568,1.8565,1.861,1.8607,1.8757,1.8776,1.8634,1.8635,1.8636,0,1.8442,1.8473,1.8475,1.849,1.8494,1.852,1.8533,1.8512,1.8527,1.8537,1.8562,1.8586,1.8604,1.8648,1.8641,1.8661,1.8649,1.8701,1.8652,1.8659,1.8652,1.8651,1.8654,1.8711,1.8713,1.8714,1.8715,0,1.8562,1.8553,1.8574,1.8593,1.861,1.8624,1.8635,1.865,1.8628,1.8647,1.8674,1.8688,1.8716,1.874,1.8757,1.8759,1.8734,1.873,1.8742,1.875,1.8756,1.8755,1.8596,1.8727,1.8726,1.8725,1.8724,1.8724,1.8652,1.8679,1.8684,1.8708,1.8715,1.8726,1.875,1.8745,1.8767,1.8788,1.8774,1.8806,1.8812,1.8833,1.8838,1.8863,1.8842,1.8859,1.8863,1.8868,1.8875,1.8751,1.8866,1.8866,1.8865,1.8865,1.8865,0,1.8771,1.8773,1.8796,1.8812,1.8832,1.8806,1.8817,1.8836,1.8864,1.8872,1.8891,1.8922,1.8946,1.8941,1.8962,1.8983,1.8972,1.899,1.8989,1.899,1.8891,1.888,1.8998,1.8998,1.8998,1.8998,1.8998,1.8998,1.8836,1.8881,1.8873,1.8921,1.8922,1.8953,1.8962,1.8973,1.8979,1.9016,1.9035,1.9032,1.9035,1.9056,1.9077,1.9075,1.9085,1.9107,1.9101,1.9009,1.8996,1.8984,1.8973,1.9109,1.9109,1.9197,1.9198,1.9199]},{"header":{"parameterUnit":"m.s-1","parameterCategory":1,"la1":30.2991,"la2":30.254,"lo1":-89.0895,"lo2":-89.0444,"dx":0.0017,"dy":0.0017,"nx":28,"ny":28,"refTime":"2023-01-27T09:00:00:Z","depth":0,"parameterNumber":3,"parameterNumberName":"V-component_of_WINDS"},"data":[0,0,0,0,0,0,0,0,0,0,0,0,0,0,0,0,0,0,0,0,0,0,0,0,0,0,0,0,0,0,0,0,0,0,0,0,0,0,0,0,0,0,0,0,0,0,0,0,0,0,0,0,0,0,0,0,0,0,-3.1589,-3.159,0,-3.1741,-3.1743,-3.1745,-3.175,-3.1749,-3.1747,-3.1745,-3.19,-3.1906,-3.1912,0,0,0,0,0,0,0,0,0,0,0,0,0,-3.1302,-3.1307,-3.1588,-3.159,-3.1592,-3.1741,-3.1743,-3.1745,-3.1751,-3.1749,-3.1746,-3.1744,-3.1899,-3.1905,-3.1912,0,0,0,0,0,0,0,0,0,0,0,0,0,-3.1437,-3.1309,-3.1588,-3.1613,-3.1617,-3.1741,-3.1743,-3.1746,-3.1751,-3.1749,-3.1746,-3.1743,-3.1896,-3.1905,-3.1913,-3.2023,0,0,-3.194,-3.1944,0,0,0,0,0,0,0,0,-3.143,-3.1448,-3.1607,-3.1611,-3.1616,-3.1724,-3.1699,-3.1839,-3.1752,-3.17,-3.1745,-3.1742,-3.1844,-3.1857,-3.1892,-3.203,-3.2036,-3.1941,-3.1946,-3.195,-3.1953,0,0,0,0,0,0,0,-3.142,-3.1441,-3.1649,-3.161,-3.1615,-3.1617,-3.1633,-3.1726,-3.1786,-3.1704,-3.1705,-3.1723,-3.1846,-3.1883,-3.1895,-3.2039,-3.1941,-3.1949,-3.1954,-3.1957,-3.2276,-3.2279,0,0,0,0,0,0,-3.1406,-3.1434,-3.1644,-3.1653,-3.1514,-3.1624,-3.1642,-3.1692,-3.1785,-3.1796,-3.1725,-3.1723,-3.1869,-3.1885,-3.1901,-3.2035,-3.195,-3.1958,-3.1963,-3.2273,-3.2277,-3.228,0,0,0,0,0,0,-3.14,-3.1425,-3.1638,-3.1544,-3.1571,-3.1632,-3.1688,-3.1697,-3.1734,-3.1801,-3.1811,-3.1753,-3.1868,-3.1888,-3.1993,-3.2041,-3.1962,-3.197,-3.2269,-3.2274,-3.2278,-3.2305,0,0,0,0,0,0,-3.1392,-3.1422,-3.1464,-3.1545,-3.1576,-3.1727,-3.1691,-3.1702,-3.1749,-3.1747,-3.1829,-3.184,-3.1867,-3.198,-3.2001,-3.2051,-3.1977,-3.2265,-3.2271,-3.2277,-3.23,-3.231,-3.2319,0,0,0,0,0,-3.1381,-3.1465,-3.1466,-3.1492,-3.163,-3.173,-3.1748,-3.1778,-3.1753,-3.1796,-3.1839,-3.1837,-3.2032,-3.199,-3.2015,-3.2068,-3.2262,-3.2269,-3.2276,-3.2296,-3.2308,-3.2318,0,0,0,0,0,0,-3.1388,-3.1476,-3.1478,-3.1591,-3.1653,-3.1731,-3.1785,-3.179,-3.186,-3.1856,-3.189,-3.1909,-3.2013,-3.2051,-3.2003,-3.218,-3.2144,-3.2157,-3.215,-3.2163,-3.2172,-3.216,-3.1984,0,0,0,0,0,-3.1403,-3.1477,-3.155,-3.1642,-3.1673,-3.1724,-3.1769,-3.1787,-3.1853,-3.1879,-3.1929,-3.1993,-3.2069,-3.2118,-3.2191,-3.2306,-3.2324,-3.2355,-3.2364,-3.2372,-3.2382,-3.2446,-3.2461,-3.2304,-3.2304,-3.2304,0,0,-3.1433,-3.1491,-3.1535,-3.1645,-3.1695,-3.1771,-3.1746,-3.1827,-3.1884,-3.1891,-3.1993,-3.2033,-3.2106,-3.2216,-3.2267,-3.2251,-3.243,-3.2381,-3.2386,-3.2392,-3.2455,-3.247,-3.2483,-3.2309,-3.2308,-3.2307,0,0,-3.1528,-3.1579,-3.1661,-3.1713,-3.179,-3.1824,-3.1844,-3.1922,-3.1948,-3.2051,-3.2059,-3.2127,-3.2257,-3.2309,-3.2353,-3.247,-3.2471,-3.2493,-3.2541,-3.2604,-3.2616,-3.2627,-3.2669,-3.2684,-3.2503,-3.2503,-3.2503,0,-3.1556,-3.1671,-3.1703,-3.1785,-3.1834,-3.1845,-3.1929,-3.1977,-3.2074,-3.2107,-3.2089,-3.2253,-3.2303,-3.2426,-3.2455,-3.249,-3.2514,-3.2483,-3.2612,-3.2623,-3.2634,-3.2675,-3.2691,-3.2505,-3.2505,-3.2505,-3.2504,0,-3.1703,-3.1783,-3.184,-3.1934,-3.1989,-3.2072,-3.2117,-3.2169,-3.2183,-3.2219,-3.2325,-3.2386,-3.2472,-3.2503,-3.2517,-3.2629,-3.2617,-3.2604,-3.2569,-3.2651,-3.269,-3.2705,-3.2508,-3.2507,-3.2507,-3.2506,0,0,-3.1804,-3.1916,-3.1937,-3.1981,-3.2067,-3.213,-3.2214,-3.2299,-3.2343,-3.241,-3.2482,-3.2592,-3.2582,-3.2632,-3.2652,-3.2707,-3.2797,-3.2689,-3.2691,-3.2707,-3.2925,-3.2933,-3.2951,-3.2799,-3.2802,-3.2804,-3.2919,0,-3.1908,-3.2058,-3.209,-3.2219,-3.2294,-3.2306,-3.238,-3.2441,-3.2477,-3.2546,-3.2586,-3.2664,-3.2645,-3.2675,-3.273,-3.2774,-3.2841,-3.2767,-3.2866,-3.2869,-3.2846,-3.2971,-3.298,-3.3085,-3.2934,-3.2937,-3.2939,0,-3.2049,-3.2121,-3.2257,-3.2336,-3.2369,-3.2434,-3.2515,-3.2581,-3.2652,-3.2674,-3.2731,-3.2746,-3.2834,-3.2796,-3.2918,-3.2867,-3.291,-3.2938,-3.2943,-3.2952,-3.2908,-3.2984,-3.3119,-3.3134,-3.2963,-3.2961,-3.2959,0,-3.211,-3.224,-3.2339,-3.2376,-3.247,-3.2516,-3.2557,-3.2625,-3.2675,-3.2746,-3.2779,-3.286,-3.2904,-3.2966,-3.3003,-3.2972,-3.3123,-3.3087,-3.3144,-3.3144,-3.3175,-3.3172,-3.3318,-3.3203,-3.3203,-3.3202,-3.3202,0,-3.2223,-3.2306,-3.2368,-3.2429,-3.2523,-3.256,-3.2652,-3.2693,-3.2753,-3.2823,-3.2839,-3.2903,-3.2948,-3.302,-3.3049,-3.3147,-3.3166,-3.3187,-3.3194,-3.3186,-3.3183,-3.3214,-3.3207,-3.3207,-3.3206,-3.3205,-3.3204,0,-3.2305,-3.235,-3.2459,-3.254,-3.2562,-3.2628,-3.2697,-3.2757,-3.2795,-3.2882,-3.2905,-3.2964,-3.3049,-3.3092,-3.3197,-3.3217,-3.3327,-3.333,-3.3303,-3.3306,-3.3361,-3.3355,-3.3531,-3.3556,-3.3424,-3.3426,-3.3427,0,-3.2374,-3.2439,-3.2527,-3.2575,-3.2617,-3.2694,-3.2745,-3.2785,-3.2838,-3.2924,-3.2974,-3.306,-3.3131,-3.3266,-3.3318,-3.3399,-3.3404,-3.346,-3.3416,-3.3406,-3.3405,-3.34,-3.3407,-3.3467,-3.3468,-3.3469,-3.347,0,-3.2491,-3.2511,-3.2584,-3.2667,-3.2728,-3.2794,-3.286,-3.2898,-3.2948,-3.3007,-3.3095,-3.315,-3.3259,-3.3344,-3.343,-3.3472,-3.348,-3.3484,-3.3502,-3.3493,-3.3476,-3.3486,-3.3325,-3.3479,-3.3478,-3.3478,-3.3477,-3.3477,-3.2569,-3.2628,-3.2699,-3.2781,-3.2835,-3.2896,-3.2957,-3.3003,-3.3077,-3.3169,-3.3188,-3.3281,-3.3351,-3.3467,-3.3513,-3.3586,-3.3574,-3.3599,-3.3606,-3.3611,-3.3614,-3.3465,-3.3602,-3.3602,-3.3601,-3.3601,-3.3601,0,-3.2687,-3.2735,-3.281,-3.2902,-3.2966,-3.2969,-3.3042,-3.3096,-3.3178,-3.3243,-3.3313,-3.3415,-3.3498,-3.3558,-3.3643,-3.369,-3.3696,-3.3711,-3.3708,-3.3718,-3.362,-3.3596,-3.3705,-3.3705,-3.3705,-3.3705,-3.3705,-3.3705,-3.2756,-3.2856,-3.2884,-3.3011,-3.3058,-3.3149,-3.3191,-3.3248,-3.33,-3.3413,-3.3483,-3.3521,-3.3585,-3.3675,-3.3752,-3.3768,-3.3798,-3.3813,-3.3829,-3.3736,-3.3724,-3.3714,-3.3692,-3.382,-3.382,-3.3921,-3.3922,-3.3922]}]]